Ceredo, WV

12:31 AM EDT on September 27, 2016 (GMT -0400)
Tri-State / Ferguson

Weather History for KHTS - August, 2013

Change the Weather History Date:

Saturday, August 24, 2013

  Actual Average Record
Temperature  
Mean Temperature 74 °F 74 °F  
Max Temperature 85 °F 85 °F 99 °F (1959)
Min Temperature 62 °F 64 °F 48 °F (1952)
Degree Days  
Heating Degree Days 0 0  
Month to date heating degree days 4 0  
Since 1 June heating degree days 4 12  
Since 1 July heating degree days 4 0  
Cooling Degree Days 9 9  
Month to date cooling degree days 189 248  
Year to date cooling degree days 953 918  
Since 1 June cooling degree days 783 805  
Growing Degree Days 23 (Base 50)    
Moisture  
Dew Point 63 °F    
Average Humidity 72    
Maximum Humidity 100    
Minimum Humidity 43    
Precipitation  
Precipitation 0.00 in 0.11 in 3.01 in (1999)
Month to date precipitation 3.05 2.97  
Year to date precipitation 30.29 29.48  
Snow  
Snow 0.00 in - - ()
Month to date snowfall 0.0  
Since 1 September snowfall 12.4  
Snow Depth 0.00 in    
Sea Level Pressure  
Sea Level Pressure 30.22 in    
Wind  
Wind Speed 2 mph (East)    
Max Wind Speed 10 mph    
Max Gust Speed 14 mph    
Visibility 5 miles    
Events Fog    
T = Trace of Precipitation, MM = Missing Value Source: NWS Daily Summary

Daily Weather History Graph

Daily Weather History Graph

Search for Another Location

Airport or City:

Trip Planner

Search our weather history database for the weather conditions in past years. The results will help you decide how hot, cold, wet, or windy it might be!

Date:

Astronomy

Aug. 24, 2013 Rise Set
Actual Time 6:52 AM EDT 8:11 PM EDT
Civil Twilight 6:25 AM EDT 8:38 PM EDT
Nautical Twilight 5:52 AM EDT 9:11 PM EDT
Astronomical Twilight 5:17 AM EDT 9:46 PM EDT
Moon 10:09 PM EDT (8/24) 10:47 AM EDT (8/24)
Length of Visible Light 14h 13m
Length of Day
13h 18m
Waning Gibbous, 84% of the Moon is Illuminated
Aug 24
Waning Gibbous
Aug 28
Last Quarter
Sep 5
New
Sep 12
First Quarter
Sep 19
Full

Hourly Weather History & Observations

Time (EDT) Temp. Heat Index Dew Point Humidity Pressure Visibility Wind Dir Wind Speed Gust Speed Precip Events Conditions
12:51 AM 68.0 °F - 64.9 °F 90% 30.13 in 7.0 mi Calm Calm - N/A   Partly Cloudy
1:51 AM 66.0 °F - 64.0 °F 93% 30.13 in 4.0 mi Calm Calm - N/A   Clear
2:19 AM 64.4 °F - 64.4 °F 100% 30.15 in 2.5 mi Calm Calm - N/A   Clear
2:43 AM 64.4 °F - 64.4 °F 100% 30.16 in 3.0 mi East 3.5 mph - N/A   Clear
2:51 AM 64.9 °F - 63.0 °F 93% 30.14 in 3.0 mi ENE 3.5 mph - N/A   Clear
3:51 AM 64.9 °F - 64.0 °F 97% 30.14 in 4.0 mi Calm Calm - N/A   Clear
4:04 AM 64.4 °F - 62.6 °F 94% 30.17 in 2.5 mi Calm Calm - N/A   Clear
4:23 AM 64.4 °F - 62.6 °F 94% 30.17 in 1.8 mi NNE 3.5 mph - N/A   Partly Cloudy
4:26 AM 64.4 °F - 62.6 °F 94% 30.17 in 0.8 mi NNE 3.5 mph - N/A   Mist
4:36 AM 64.4 °F - 62.6 °F 94% 30.18 in 0.2 mi Calm Calm - N/A Fog Fog
4:51 AM 64.0 °F - 63.0 °F 96% 30.16 in 0.2 mi Calm Calm - N/A Fog Fog
5:51 AM 64.0 °F - 63.0 °F 96% 30.17 in 0.2 mi Calm Calm - N/A Fog Fog
6:07 AM 62.6 °F - 62.6 °F 100% 30.19 in 0.5 mi Calm Calm - N/A Fog Fog
6:14 AM 62.6 °F - 62.6 °F 100% 30.19 in 0.2 mi Calm Calm - N/A Fog Fog
6:51 AM 64.0 °F - 63.0 °F 96% 30.19 in 0.2 mi Calm Calm - N/A Fog Fog
7:51 AM 64.0 °F - 63.0 °F 96% 30.22 in 0.2 mi ENE 3.5 mph - N/A Fog Fog
8:39 AM 64.4 °F - 64.4 °F 100% 30.26 in 0.5 mi Calm Calm - N/A Fog Fog
8:51 AM 64.9 °F - 64.0 °F 97% 30.25 in 0.8 mi Calm Calm - N/A   Overcast
8:57 AM 64.4 °F - 64.4 °F 100% 30.26 in 2.0 mi Calm Calm - N/A   Overcast
9:14 AM 66.2 °F - 64.4 °F 94% 30.27 in 4.0 mi Calm Calm - N/A   Overcast
9:21 AM 66.2 °F - 64.4 °F 94% 30.27 in 2.5 mi East 3.5 mph - N/A   Overcast
9:51 AM 66.9 °F - 64.9 °F 93% 30.26 in 2.5 mi Calm Calm - N/A   Scattered Clouds
9:58 AM 68.0 °F - 64.4 °F 88% 30.28 in 3.0 mi Variable 3.5 mph - N/A   Scattered Clouds
10:51 AM 73.0 °F - 64.9 °F 76% 30.27 in 10.0 mi SE 3.5 mph - N/A   Clear
11:51 AM 77.0 °F - 64.9 °F 66% 30.26 in 10.0 mi East 3.5 mph - N/A   Clear
12:51 PM 80.1 °F 81.1 °F 61.0 °F 52% 30.25 in 10.0 mi East 3.5 mph - N/A   Clear
1:51 PM 81.0 °F 81.1 °F 57.9 °F 45% 30.24 in 10.0 mi Variable 3.5 mph - N/A   Clear
2:51 PM 82.9 °F 82.6 °F 57.9 °F 42% 30.23 in 10.0 mi Variable 3.5 mph - N/A   Clear
3:51 PM 84.0 °F 83.8 °F 59.0 °F 43% 30.22 in 10.0 mi Variable 4.6 mph - N/A   Scattered Clouds
4:51 PM 82.9 °F 83.2 °F 60.1 °F 46% 30.23 in 10.0 mi SE 5.8 mph - N/A   Clear
5:51 PM 82.0 °F 82.0 °F 57.9 °F 44% 30.23 in 10.0 mi ESE 5.8 mph - N/A   Clear
6:51 PM 80.1 °F 80.7 °F 59.0 °F 48% 30.22 in 10.0 mi East 4.6 mph - N/A   Clear
7:51 PM 77.0 °F - 61.0 °F 58% 30.22 in 10.0 mi ENE 3.5 mph - N/A   Clear
8:51 PM 73.0 °F - 62.1 °F 68% 30.23 in 10.0 mi Calm Calm - N/A   Clear
9:51 PM 66.9 °F - 63.0 °F 87% 30.25 in 10.0 mi Calm Calm - N/A   Clear
10:51 PM 66.0 °F - 63.0 °F 90% 30.26 in 8.0 mi ESE 3.5 mph - N/A   Clear
11:51 PM 64.9 °F - 63.0 °F 93% 30.28 in 8.0 mi Calm Calm - N/A   Clear